CET,Max TemperatureF,Mean TemperatureF,Min TemperatureF,Max Dew PointF,MeanDew PointF,Min DewpointF,Max Humidity, Mean Humidity, Min Humidity, Max Sea Level PressureIn, Mean Sea Level PressureIn, Min Sea Level PressureIn, Max VisibilityMiles, Mean VisibilityMiles, Min VisibilityMiles, Max Wind SpeedMPH, Mean Wind SpeedMPH, Max Gust SpeedMPH,PrecipitationIn, CloudCover, Events, WindDirDegrees
2013-10-1,47,42,37,41,37,30,93,82,70,29.89,29.80,29.77,12,1,0,9,6,,0.00,3,Fog,307
2013-10-2,47,40,33,39,31,21,93,70,30,30.15,30.01,29.89,12,4,0,13,6,,0.00,1,Fog,285
2013-10-3,45,41,37,38,35,32,93,83,72,30.27,30.23,30.18,0,0,0,8,6,,0.00,,Fog,311
2013-10-4,50,43,36,46,37,30,93,81,69,30.30,30.29,30.27,12,1,0,7,5,,0.00,3,Fog,269
2013-10-5,41,38,35,36,34,33,87,80,73,30.27,30.20,30.18,12,1,0,17,6,,0.12,,Fog-Rain,341
2013-10-6,46,42,38,45,38,34,100,83,75,30.27,30.23,30.18,12,4,0,9,5,,0.02,6,Fog-Rain,119
2013-10-7,47,44,40,43,40,36,93,86,71,30.30,30.29,30.27,11,3,0,13,5,,0.08,6,Fog-Rain,46
2013-10-8,47,44,40,43,40,37,100,86,76,30.30,30.29,30.27,12,5,0,7,4,,0.01,7,Fog-Rain,137
2013-10-9,43,42,41,39,38,37,93,86,79,30.24,30.18,30.09,0,0,0,9,5,,0.12,,Fog-Rain,147
2013-10-10,40,38,37,36,34,32,87,80,73,30.06,29.86,29.65,0,0,0,20,9,39,1.02,,Fog-Rain,172
2013-10-11,33,32,30,32,25,18,87,71,42,29.98,29.77,29.59,12,5,0,22,14,43,0.01,1,Fog-Rain,150
2013-10-12,35,32,28,29,27,22,88,81,59,30.12,30.00,29.92,12,2,0,21,10,38,0.28,3,Fog-Snow,168
2013-10-13,39,35,31,34,29,23,93,78,64,30.24,30.17,30.12,16,7,0,14,9,26,0.00,3,Fog,135
2013-10-14,42,38,35,37,34,30,100,85,67,30.21,30.19,30.15,16,5,0,12,4,,0.00,4,Fog,118
2013-10-15,43,39,35,37,33,30,93,84,66,30.15,30.04,29.95,16,5,0,7,3,,0.00,3,Fog,326
2013-10-16,40,36,32,32,21,16,87,52,25,29.95,29.84,29.77,9,5,0,30,12,48,0.00,1,Fog,333
2013-10-17,48,42,35,29,20,14,57,37,22,30.09,30.05,29.95,19,9,6,13,4,,0.00,1,,298
2013-10-18,49,42,36,19,11,5,39,24,8,30.15,30.10,30.09,12,8,6,10,5,,0.00,,,301
2013-10-19,46,40,35,38,29,20,100,63,36,30.27,30.22,30.18,6,4,0,12,5,,0.00,,Fog,112
2013-10-20,46,40,35,41,37,32,93,81,65,30.33,30.29,30.27,12,2,0,14,6,,0.16,3,Fog-Rain-Thunderstorm,128
2013-10-21,48,43,38,42,38,35,93,83,66,30.30,30.28,30.27,12,5,0,13,6,24,0.00,4,Fog-Thunderstorm,140
2013-10-22,49,45,41,45,40,35,93,78,52,30.30,30.26,30.24,12,7,6,18,11,30,0.00,4,,141
2013-10-23,48,45,42,45,40,34,100,79,49,30.24,30.19,30.15,9,3,0,21,15,39,0.28,5,Fog-Rain,180
2013-10-24,45,42,40,41,38,36,87,84,77,30.27,30.22,30.18,6,0,0,12,8,,0.02,8,Fog-Rain,119
2013-10-25,47,42,38,39,36,33,87,79,62,30.27,30.26,30.24,12,4,0,9,5,,0.00,2,Fog,317
2013-10-26,52,46,39,41,38,34,81,70,55,30.33,30.28,30.27,9,6,4,9,4,,0.00,3,,326
2013-10-27,51,46,41,43,36,22,93,69,24,30.30,30.20,30.15,9,6,5,18,10,,0.00,5,,155
2013-10-28,47,43,39,45,40,30,100,82,50,30.15,30.11,30.09,19,6,0,14,8,24,0.00,4,Fog,144
2013-10-29,43,42,41,41,39,35,100,87,63,30.09,30.06,30.04,12,3,0,21,12,37,0.63,7,Fog-Rain-Thunderstorm,194
2013-10-30,46,42,39,41,38,36,93,88,66,30.18,30.10,30.06,12,3,0,14,9,24,0.20,6,Fog-Rain,176
2013-10-31,43,40,37,39,36,34,93,87,80,30.24,30.20,30.18,0,0,0,8,3,,0.00,,Fog,299